Left ArrowRight Arrow

35.59393, -105.2239

Hourly Observations for June 23, 2024

Temp ( °F °C ) Dew Point ( °F °C ) Humidity (%) Winds ( mph kmh ) Pressure ( in mb ) Visibility ( mi km ) Precip ( " mm )
12:53 am 00:53 Clear 63 17.2 53 11.7 70 70 N 3 6 30.02 1017 10 16 0.00 0.00
1:53 am 01:53 Clear 61 16.1 54 12.2 78 78 NE 6 9 30.01 1016 10 16 0.00 0.00
2:53 am 02:53 Clear 60 15.6 54 12.2 80 80 Calm 30.00 1016 10 16 0.00 0.00
3:53 am 03:53 Clear 60 15.6 53 11.7 78 78 ENE 6 9 29.99 1016 10 16 0.00 0.00
4:53 am 04:53 Clear 60 15.6 53 11.7 78 78 NE 3 6 29.98 1015 10 16 0.00 0.00
5:53 am 05:53 Sunny 59 15 54 12.2 83 83 ENE 7 11 30.01 1016 10 16 0.00 0.00
6:53 am 06:53 Sunny 62 16.7 54 12.2 75 75 NE 6 9 30.01 1016 10 16 0.00 0.00
7:53 am 07:53 Sunny 64 17.8 55 12.8 73 73 N 3 6 30.00 1016 10 16 0.00 0.00
8:53 am 08:53 Sunny 67 19.4 57 13.9 71 71 NNE 5 7 30.01 1016 10 16 0.00 0.00
9:53 am 09:53 Cloudy 69 20.6 52 11.1 54 54 NW 10 17 30.02 1017 10 16 0.00 0.00
10:53 am 10:53 Cloudy 70 21.1 54 12.2 57 57 N 5 7 30.02 1017 10 16 0.00 0.00
11:53 am 11:53 Mostly Cloudy 72 22.2 52 11.1 49 49 N 5 7 30.03 1017 10 16 0.01 0.13
12:53 pm 12:53 Cloudy with Light Rain 69 20.6 52 11.1 54 54 NW 13 20 30.04 1017 10 16 0.01 0.13
1:53 pm 13:53 Cloudy with Light Rain 69 20.6 55 12.8 61 61 WNW 6 9 30.04 1017 10 16 0.01 0.25
2:53 pm 14:53 Cloudy with Light Rain 71 21.7 52 11.1 51 51 W 8 13 30.01 1016 10 16 0.01 0.13
3:53 pm 15:53 Cloudy with Light Rain 70 21.1 55 12.8 59 59 SW 3 6 30.01 1016 10 16 0.01 0.13
4:53 pm 16:53 Cloudy 73 22.8 53 11.7 50 50 S 6 9 29.97 1015 10 16 0.01 0.13
5:53 pm 17:53 Cloudy 73 22.8 56 13.3 55 55 NW 5 7 29.97 1015 10 16 0.00 0.00
6:53 pm 18:53 Partly Cloudy 73 22.8 58 14.4 59 59 Calm 29.94 1014 10 16 0.01 0.13
7:53 pm 19:53 Mostly Cloudy with Light Rain 68 20 60 15.6 76 76 S 3 6 29.96 1015 10 16 0.01 0.13
8:53 pm 20:53 Mostly Cloudy 67 19.4 58 14.4 73 73 SW 6 9 29.95 1014 10 16 0.01 0.13
9:53 pm 21:53 Clear 65 18.3 55 12.8 70 70 WSW 6 9 29.97 1015 10 16 0.00 0.00
10:53 pm 22:53 Clear 62 16.7 54 12.2 75 75 S 9 15 29.98 1015 10 16 0.00 0.00
11:53 pm 23:53 Clear 60 15.6 53 11.7 78 78 SSW 9 15 29.98 1015 10 16 0.00 0.00

Powered by Vaisala Xweather